Hourly Data Report for March 11, 2012

All times are specified in Local Standard Time (LST). Add 1 hour to adjust for Daylight Saving Time where and when it is observed.

MIRAMICHI RCS
NEW BRUNSWICK

47°00'34.000" N
65°27'54.000" W
33.00 m
8100989
71744
ACQ

Download Data

Hourly Data (March 2012)
Hourly Data Report for March 11, 2012
TIME Temp Definition
°C
Dew Point Definition
°C
Rel Hum Definition
%
Wind Dir Definition
10's deg

Wind Spd Definition
km/h
Visibility Definition
km
Stn Press Definition
kPa
Hmdx Definition


Wind Chill Definition


Weather Definition


00:00 -9.3 -11.2 86 4 2   102.73   -10 LegendNANA
01:00 -10.1 -11.9 87 36 2   102.73   -11 LegendNANA
02:00 -11.2 -13.0 87   0   102.75     LegendNANA
03:00 -11.7 -13.3 88 29 2   102.72   -13 LegendNANA
04:00 -12.4 -14.1 87   0   102.67     LegendNANA
05:00 -12.6 -14.1 89 27 4   102.69   -15 LegendNANA
06:00 -13.0 -14.7 87   0   102.66     LegendNANA
07:00 -12.9 -14.8 86 27 4   102.63   -16 LegendNANA
08:00 -11.4 -14.3 79 27 2   102.61   -13 LegendNANA
09:00 -8.9 -12.8 73 24 2   102.57   -10 LegendNANA
10:00 -6.3 -11.2 68   0   102.50     LegendNANA
11:00 -4.7 -11.7 58 30 6   102.43   -7 LegendNANA
12:00 -2.3 -9.8 56 20 7   102.30   -5 LegendNANA
13:00 0.7 -6.9 57 20 13   102.08     LegendNANA
14:00 2.1 -6.1 55 22 24   101.94     LegendNANA
15:00 2.8 -5.3 55 22 22   101.82     LegendNANA
16:00 3.6 -6.7 47 25 13   101.75     LegendNANA
17:00 3.6 -6.5 48 25 13   101.69     LegendNANA
18:00 3.2 -6.2 50 26 9   101.72     LegendNANA
19:00 2.8 -5.8 53 27 6   101.74     LegendNANA
20:00 2.0 -6.1 55 31 6   101.76     LegendNANA
21:00 -0.8 -5.4 71 23 2   101.72   -1 LegendNANA
22:00 -2.5 -5.7 79   0   101.71     LegendNANA
23:00 -3.8 -5.7 87   0   101.70     LegendNANA

Notes on Data Quality.

Legend

  • E = Estimated
  • M = Missing
  • NA = Not Available
Date modified: